Precipitable_Water
0.90 1.13 1.24 1.33 1.34 1.39 1.44 1.48 1.51 1.50 1.58 1.61 1.64 1.65 1.68 1.71 1.75 1.79 1.86 1.91 1.95 1.97 1.95 1.92 1.89 1.79 1.82 1.80 1.67 1.53 1.55 1.62 1.62 1.53 1.48 1.58 1.74 1.62 1.54 1.47 1.39 1.38 1.27
0.93 1.09 1.23 1.31 1.30 1.34 1.40 1.44 1.45 1.48 1.53 1.55 1.59 1.62 1.65 1.67 1.69 1.71 1.74 1.80 1.86 1.90 1.95 1.92 1.92 1.90 1.83 1.80 1.78 1.64 1.53 1.51 1.57 1.60 1.51 1.39 1.58 1.70 1.58 1.47 1.39 1.32 1.24
0.91 1.04 1.15 1.21 1.24 1.25 1.34 1.37 1.40 1.44 1.46 1.51 1.49 1.55 1.57 1.61 1.62 1.66 1.66 1.68 1.72 1.81 1.87 1.87 1.83 1.81 1.80 1.82 1.80 1.74 1.59 1.55 1.49 1.45 1.46 1.45 1.32 1.49 1.60 1.54 1.44 1.41 1.25
0.92 1.01 1.11 1.17 1.18 1.18 1.25 1.31 1.34 1.35 1.42 1.42 1.42 1.41 1.51 1.54 1.56 1.60 1.60 1.61 1.62 1.61 1.63 1.69 1.77 1.75 1.76 1.78 1.80 1.79 1.67 1.60 1.60 1.58 1.59 1.49 1.29 1.14 1.30 1.53 1.55 1.47 1.33
0.83 0.95 1.06 1.11 1.15 1.14 1.17 1.23 1.28 1.24 1.26 1.32 1.31 1.33 1.36 1.44 1.51 1.55 1.56 1.57 1.55 1.58 1.59 1.59 1.55 1.59 1.64 1.70 1.76 1.75 1.72 1.65 1.64 1.59 1.59 1.64 1.50 1.32 1.07 1.08 1.32 1.45 1.32
0.82 0.93 1.04 1.08 1.09 1.07 1.09 1.12 1.15 1.12 1.14 1.21 1.21 1.21 1.22 1.28 1.35 1.47 1.52 1.52 1.52 1.54 1.53 1.53 1.55 1.55 1.58 1.62 1.70 1.68 1.69 1.66 1.60 1.57 1.55 1.61 1.71 1.67 1.43 1.12 0.98 1.18 1.36
0.82 0.91 1.00 1.01 1.02 1.03 1.03 1.06 1.10 1.08 1.11 1.11 1.10 1.09 1.08 1.12 1.15 1.25 1.33 1.40 1.46 1.47 1.45 1.45 1.47 1.46 1.52 1.56 1.60 1.62 1.62 1.62 1.60 1.59 1.53 1.58 1.70 1.72 1.58 1.44 1.20 1.03 1.17
0.81 0.88 0.93 0.96 0.97 0.98 0.98 1.02 1.04 1.04 1.01 1.01 1.02 1.00 0.97 0.95 0.96 1.01 1.09 1.12 1.18 1.26 1.32 1.37 1.36 1.38 1.44 1.48 1.52 1.53 1.55 1.58 1.56 1.55 1.52 1.57 1.63 1.72 1.76 1.71 1.56 1.37 1.10
0.78 0.83 0.86 0.90 0.93 0.94 0.94 0.97 0.97 0.92 0.82 0.82 0.86 0.90 0.89 0.89 0.84 0.83 0.85 0.89 0.88 0.89 1.01 1.10 1.18 1.23 1.27 1.36 1.44 1.49 1.48 1.46 1.47 1.48 1.46 1.53 1.59 1.69 1.72 1.73 1.72 1.56 1.52
0.71 0.77 0.81 0.85 0.86 0.88 0.90 0.92 0.87 0.81 0.72 0.67 0.70 0.69 0.71 0.72 0.72 0.69 0.61 0.62 0.66 0.68 0.66 0.64 0.71 0.77 0.95 1.12 1.21 1.31 1.41 1.43 1.41 1.44 1.44 1.49 1.55 1.61 1.66 1.72 1.74 1.74 1.60
0.63 0.70 0.76 0.79 0.81 0.83 0.84 0.83 0.79 0.70 0.65 0.60 0.56 0.53 0.52 0.53 0.51 0.51 0.51 0.46 0.46 0.45 0.47 0.47 0.46 0.45 0.43 0.52 0.78 0.99 1.11 1.22 1.36 1.41 1.41 1.46 1.51 1.53 1.56 1.62 1.67 1.70 1.72
0.52 0.60 0.67 0.71 0.73 0.73 0.70 0.65 0.58 0.52 0.47 0.47 0.47 0.46 0.45 0.41 0.38 0.36 0.35 0.35 0.34 0.33 0.34 0.36 0.36 0.34 0.34 0.35 0.37 0.48 0.66 0.85 1.00 1.18 1.36 1.43 1.48 1.51 1.53 1.54 1.56 1.63 1.67
0.49 0.53 0.60 0.64 0.66 0.65 0.59 0.49 0.43 0.44 0.44 0.43 0.41 0.39 0.35 0.32 0.29 0.27 0.26 0.26 0.25 0.24 0.22 0.21 0.21 0.22 0.24 0.27 0.29 0.31 0.37 0.47 0.62 0.80 0.99 1.16 1.28 1.39 1.47 1.53 1.53 1.55 1.60
0.43 0.46 0.52 0.56 0.57 0.56 0.50 0.43 0.42 0.40 0.40 0.38 0.37 0.34 0.30 0.28 0.26 0.26 0.24 0.22 0.20 0.18 0.16 0.16 0.16 0.16 0.16 0.17 0.18 0.21 0.24 0.28 0.34 0.43 0.61 0.79 0.99 1.14 1.24 1.32 1.36 1.42 1.50
0.39 0.41 0.44 0.48 0.48 0.47 0.44 0.43 0.42 0.41 0.38 0.37 0.35 0.32 0.29 0.28 0.27 0.27 0.25 0.22 0.19 0.18 0.16 0.15 0.14 0.14 0.13 0.13 0.14 0.14 0.15 0.17 0.21 0.26 0.37 0.53 0.66 0.87 1.06 1.17 1.23 1.26 1.31
0.38 0.38 0.41 0.42 0.43 0.43 0.42 0.42 0.41 0.40 0.38 0.36 0.34 0.31 0.30 0.29 0.27 0.25 0.23 0.21 0.20 0.20 0.18 0.17 0.15 0.14 0.14 0.15 0.14 0.14 0.15 0.16 0.18 0.19 0.23 0.29 0.44 0.56 0.71 0.83 0.94 1.08 1.15
0.40 0.40 0.41 0.42 0.42 0.42 0.41 0.41 0.41 0.40 0.39 0.36 0.34 0.33 0.32 0.31 0.29 0.27 0.24 0.22 0.22 0.21 0.20 0.18 0.18 0.17 0.16 0.16 0.15 0.16 0.17 0.17 0.18 0.18 0.19 0.20 0.24 0.33 0.38 0.47 0.60 0.79 0.86
0.42 0.42 0.43 0.43 0.43 0.42 0.42 0.42 0.41 0.40 0.38 0.36 0.35 0.34 0.33 0.32 0.30 0.28 0.26 0.25 0.24 0.23 0.21 0.20 0.19 0.17 0.17 0.17 0.17 0.19 0.19 0.19 0.19 0.18 0.19 0.20 0.20 0.20 0.26 0.27 0.30 0.38 0.54
0.43 0.42 0.42 0.42 0.41 0.41 0.41 0.41 0.41 0.39 0.38 0.37 0.36 0.35 0.35 0.34 0.32 0.29 0.27 0.26 0.25 0.23 0.22 0.22 0.22 0.20 0.19 0.19 0.19 0.21 0.21 0.20 0.21 0.20 0.20 0.20 0.20 0.20 0.20 0.21 0.22 0.25 0.29
0.44 0.43 0.43 0.43 0.43 0.42 0.42 0.41 0.40 0.39 0.38 0.37 0.36 0.37 0.36 0.35 0.34 0.31 0.29 0.28 0.26 0.25 0.24 0.24 0.23 0.23 0.23 0.21 0.21 0.21 0.21 0.22 0.22 0.22 0.21 0.22 0.21 0.22 0.21 0.21 0.20 0.20 0.23
0.47 0.46 0.45 0.43 0.42 0.42 0.42 0.41 0.40 0.38 0.38 0.37 0.38 0.38 0.37 0.36 0.35 0.32 0.31 0.29 0.28 0.26 0.25 0.25 0.25 0.23 0.22 0.23 0.21 0.21 0.23 0.24 0.23 0.24 0.24 0.24 0.23 0.23 0.23 0.22 0.21 0.21 0.20
0.47 0.46 0.44 0.44 0.43 0.43 0.42 0.41 0.40 0.39 0.38 0.38 0.38 0.37 0.37 0.36 0.35 0.33 0.32 0.31 0.30 0.29 0.28 0.28 0.27 0.25 0.25 0.25 0.22 0.21 0.19 0.22 0.25 0.26 0.27 0.26 0.25 0.24 0.24 0.23 0.22 0.22 0.21
0.46 0.47 0.46 0.45 0.44 0.43 0.42 0.42 0.42 0.41 0.40 0.38 0.37 0.36 0.36 0.36 0.35 0.34 0.33 0.32 0.32 0.31 0.29 0.29 0.28 0.27 0.24 0.25 0.24 0.21 0.19 0.19 0.22 0.25 0.26 0.26 0.25 0.24 0.24 0.23 0.23 0.23 0.22
0.49 0.49 0.48 0.47 0.46 0.44 0.44 0.42 0.41 0.40 0.38 0.39 0.38 0.37 0.37 0.37 0.36 0.35 0.34 0.33 0.32 0.31 0.30 0.30 0.31 0.29 0.28 0.26 0.27 0.27 0.27 0.26 0.22 0.21 0.26 0.26 0.25 0.23 0.23 0.23 0.22 0.23 0.23
0.47 0.47 0.48 0.48 0.47 0.46 0.45 0.43 0.40 0.38 0.38 0.38 0.38 0.37 0.37 0.38 0.37 0.36 0.34 0.32 0.31 0.31 0.31 0.30 0.30 0.30 0.30 0.29 0.29 0.29 0.30 0.30 0.30 0.27 0.24 0.24 0.25 0.24 0.24 0.22 0.22 0.21 0.21
0.44 0.45 0.46 0.46 0.46 0.47 0.47 0.44 0.41 0.39 0.37 0.37 0.37 0.37 0.36 0.36 0.36 0.35 0.34 0.33 0.31 0.30 0.30 0.30 0.30 0.30 0.30 0.31 0.32 0.33 0.33 0.32 0.32 0.30 0.28 0.26 0.25 0.25 0.25 0.24 0.23 0.23 0.23
Wind_Speed
10 10 9 8 7 6 7 8 8 8 8 8 7 7 7 6 6 6 6 6 6 6 6 7 6 6 5 5 5 5 4 4 5 5 5 6 6 6 7 7 7 8 9
11 11 10 10 9 7 7 8 9 8 8 8 7 7 7 8 8 8 7 7 6 6 6 5 6 5 5 5 5 5 5 4 4 4 4 5 5 6 6 6 7 8 8
11 11 11 11 11 9 7 7 9 9 8 9 7 7 7 8 9 8 8 7 7 7 7 5 5 4 5 4 5 6 5 5 5 4 5 5 5 5 5 6 6 7 8
11 12 12 12 12 10 9 8 8 8 9 9 8 7 7 7 9 9 9 9 8 8 8 8 7 6 6 6 4 6 5 5 5 5 4 5 6 6 6 7 6 7 7
13 13 14 13 13 11 11 10 9 8 8 9 9 8 8 8 8 9 10 10 11 11 9 9 9 9 9 7 8 7 7 7 6 6 5 4 6 7 7 7 7 7 7
13 14 14 14 14 12 13 12 11 10 9 10 10 9 9 8 9 9 9 9 10 10 11 10 11 11 11 10 10 9 8 8 8 7 7 6 5 7 7 7 7 8 8
14 14 14 15 14 14 13 13 12 10 10 10 9 9 9 9 9 9 10 10 10 11 10 10 9 11 12 13 12 11 11 10 8 9 8 7 5 7 7 8 7 8 8
15 15 15 16 15 15 14 14 13 12 12 11 10 10 10 10 10 10 9 11 11 11 11 11 10 10 11 12 13 13 13 13 11 10 9 8 7 6 6 7 8 9 9
17 16 16 16 16 16 15 15 14 14 13 13 13 11 11 11 11 11 11 11 12 12 12 13 12 12 12 12 12 13 14 13 13 12 11 10 9 8 8 7 6 8 8
19 18 18 18 18 17 17 16 15 15 14 14 14 14 14 13 13 12 13 13 12 13 13 13 13 14 13 13 13 14 14 14 14 13 12 12 10 10 10 9 8 7 7
20 21 20 20 19 19 18 18 17 17 16 16 15 15 15 15 15 14 14 14 14 14 14 15 14 15 15 15 15 15 16 15 16 15 15 14 13 12 12 12 11 10 9
22 22 22 22 21 21 20 19 19 19 18 18 17 17 17 16 16 16 15 15 15 16 16 16 16 17 17 18 18 18 17 17 17 17 17 16 15 15 14 14 13 13 12
24 23 24 24 23 23 22 21 21 20 19 19 19 18 18 17 17 17 17 17 17 17 17 17 18 18 18 18 19 19 19 19 19 19 19 18 18 18 17 16 15 15 14
25 25 26 25 25 25 24 23 22 22 21 20 20 20 20 19 18 18 18 18 18 18 18 18 18 18 18 18 19 19 20 20 20 21 20 20 19 19 19 19 18 18 17
27 27 27 27 27 26 26 25 24 23 23 22 22 21 21 21 20 20 20 19 19 19 19 19 19 19 19 19 19 20 20 20 20 21 21 20 20 20 19 19 19 19 19
29 29 29 28 28 28 27 26 26 25 24 24 23 23 22 22 22 21 21 21 21 21 20 20 21 21 21 21 21 21 21 21 22 22 22 22 21 21 22 21 21 21 21
31 31 30 30 29 29 28 28 27 26 26 25 24 24 23 23 23 23 23 22 22 22 22 22 22 22 22 23 22 22 23 22 22 23 23 23 24 23 23 24 24 24 24
32 32 32 31 31 30 30 29 28 28 27 26 26 25 25 25 24 24 24 24 23 23 23 23 23 24 24 24 24 24 24 24 24 23 24 24 24 25 25 25 25 26 26
33 33 33 32 32 31 30 30 29 29 28 28 27 27 26 26 25 25 24 24 24 24 24 24 24 24 25 25 25 25 25 25 25 25 25 25 26 26 27 27 27 27 27
33 34 33 33 33 32 31 30 30 30 30 29 29 28 28 27 27 26 26 26 26 25 25 25 25 25 25 26 26 26 26 26 26 27 27 27 27 28 28 29 29 29 29
35 36 35 35 34 33 32 32 31 31 31 30 30 29 29 29 28 28 28 27 27 26 26 26 26 25 25 26 27 27 28 29 28 29 29 29 29 29 30 30 31 32 32
37 37 37 36 36 35 34 33 32 32 31 31 30 30 30 30 29 29 29 28 28 28 28 27 27 27 27 26 28 29 29 30 31 31 32 31 31 31 32 32 32 33 33
38 38 38 37 37 36 35 33 32 32 31 31 31 31 31 30 30 30 30 30 30 29 29 29 28 28 28 28 28 29 30 31 31 32 32 33 33 33 33 34 34 34 34
37 37 38 38 38 37 36 35 35 34 33 33 32 32 31 31 31 31 31 31 31 31 30 30 30 30 30 30 31 31 31 32 33 33 34 34 34 34 34 35 35 36 36
33 35 37 38 37 37 37 36 36 34 34 34 33 33 32 32 32 32 32 31 31 31 31 31 32 32 32 32 32 33 33 34 34 35 35 36 36 36 36 37 37 37 37
28 31 34 35 36 36 36 35 35 34 34 33 33 33 33 33 33 32 32 32 32 32 32 33 33 34 34 34 34 34 34 35 35 36 36 37 38 38 38 38 38 38 39
Wind_Direction
225 224 225 218 213 223 224 220 214 212 212 208 212 209 212 201 197 189 177 174 162 166 169 186 188 184 177 171 167 162 154 146 144 139 136 132 133 132 134 137 139 138 145
223 224 226 219 219 223 227 222 217 213 211 210 211 219 221 218 206 199 196 193 188 182 173 167 161 163 184 190 190 187 182 176 169 165 161 154 150 150 145 144 148 150 153
222 225 223 222 225 228 225 219 212 212 215 217 222 224 221 218 211 208 205 206 202 200 195 191 188 189 190 188 196 195 190 188 184 185 188 191 182 174 169 162 157 160 162
230 229 224 222 225 226 220 212 207 212 218 217 219 222 221 218 217 218 217 216 215 218 217 219 218 220 214 211 204 198 200 201 200 200 203 210 205 198 191 183 176 172 173
236 229 224 222 222 222 218 216 215 221 222 221 222 224 224 223 222 222 223 226 225 225 229 233 232 230 227 226 224 227 222 220 215 215 212 206 204 199 194 194 191 187 184
233 229 224 222 220 223 222 222 222 225 225 224 226 226 224 225 225 222 224 229 226 232 233 239 238 234 232 230 228 232 228 224 222 221 213 209 207 201 199 194 197 195 192
230 227 222 222 224 224 226 223 224 228 222 221 222 225 227 226 223 228 229 230 231 234 236 236 236 234 235 233 234 233 229 223 224 222 218 207 203 201 204 206 202 201 201
229 227 226 224 226 225 225 224 225 228 227 225 226 229 230 227 231 231 231 232 236 234 237 235 237 235 235 233 233 230 226 226 230 219 217 214 214 207 203 210 211 209 209
232 230 228 226 227 224 225 225 228 229 230 231 232 234 233 233 236 236 234 237 238 239 238 238 239 238 238 236 234 230 226 226 222 223 221 221 223 218 215 210 206 211 212
233 232 230 230 229 227 227 228 229 231 232 234 235 237 238 239 239 241 241 243 240 241 243 242 241 239 238 239 238 233 230 229 226 222 224 228 228 226 222 221 217 213 213
235 234 232 231 230 231 231 232 233 234 235 237 239 240 241 242 242 243 244 246 246 246 246 245 244 241 241 241 240 238 234 233 230 230 233 235 233 233 231 228 227 225 223
235 234 234 232 232 233 234 235 237 238 240 240 241 241 241 243 244 245 248 249 250 249 250 249 248 247 245 243 242 240 238 237 235 235 237 238 237 235 233 232 231 231 231
236 236 235 234 234 235 236 237 238 239 240 241 242 241 241 243 245 248 250 252 252 253 252 252 250 249 247 245 243 243 242 241 239 238 241 241 241 239 237 236 235 234 234
238 237 236 235 235 236 237 238 239 240 241 242 242 243 243 244 247 249 251 253 254 254 253 252 251 250 248 246 245 244 243 243 242 242 244 244 243 242 243 242 240 241 240
239 237 237 236 236 236 237 238 239 240 241 242 243 244 244 246 247 250 252 253 254 255 254 253 252 250 248 247 246 246 245 243 242 242 242 243 243 242 243 242 242 242 242
239 238 237 237 237 237 238 238 239 240 241 242 243 244 246 248 249 251 252 254 254 255 254 253 253 252 250 248 248 247 246 245 244 243 242 243 244 244 243 245 244 244 243
239 238 237 236 236 237 238 239 240 240 241 243 244 246 247 249 251 252 253 254 254 255 255 254 254 253 251 250 250 248 246 246 245 244 244 244 244 245 247 246 247 247 247
239 238 237 238 237 238 239 240 240 241 242 244 245 247 249 250 252 253 253 254 254 255 255 255 254 254 253 251 251 248 247 246 246 246 246 246 247 247 248 249 248 248 249
238 237 237 237 237 238 239 240 241 242 243 245 246 248 250 252 253 254 254 254 255 255 255 255 254 254 254 252 251 249 248 247 246 247 247 248 249 250 250 251 250 250 250
238 237 237 238 238 238 239 240 241 242 244 246 247 249 251 253 254 255 255 255 256 256 256 255 255 255 255 253 251 249 248 248 247 248 249 250 251 252 252 252 252 252 252
239 238 237 237 237 238 239 240 242 243 245 246 248 249 252 254 255 256 256 256 256 256 256 256 255 256 256 255 251 250 250 250 250 250 251 252 254 254 254 254 254 253 253
239 237 237 237 237 238 240 241 243 243 246 247 248 250 252 254 256 257 257 257 257 257 257 257 256 255 256 256 254 252 252 251 252 253 253 253 254 256 255 255 256 254 254
240 237 236 236 236 237 238 240 241 243 245 247 248 250 252 254 256 256 257 257 257 257 257 257 257 256 256 256 257 255 254 254 256 254 253 254 255 258 257 257 257 255 254
240 237 236 236 236 238 238 240 241 244 245 247 248 250 252 254 256 257 257 257 257 257 257 257 257 257 257 257 257 257 257 257 257 256 254 255 257 257 258 258 256 254 253
239 236 234 234 236 237 239 241 243 244 247 247 248 251 253 255 256 256 256 257 257 257 258 257 257 258 258 258 258 258 258 259 258 257 258 258 259 259 258 259 256 254 254
236 233 232 232 234 236 238 240 242 244 246 246 249 251 254 256 256 256 257 257 258 258 258 259 259 260 260 259 260 259 259 259 258 258 259 260 261 258 260 257 256 256 255